Regional Weather Roundup
Issued by NWS

Home | Current Version | Previous Version | Text Only | Print | Product List | Glossary Off
Versions: 1 2 3 4 5 6 7 8 9 10 11 12 13 14 15 16 17 18 19 20 21 22 23 24 25 26 27 28 29 30 31 32 33 34 35 36 37 38 39 40 41 42 43 44 45 46 47 48 49 50

000
ASUS43 KBIS 301310
RWRND

NORTH DAKOTA REGIONAL WEATHER ROUNDUP
NATIONAL WEATHER SERVICE BISMARCK ND
800 AM CDT TUE JUN 30 2015

NOTE: "FAIR" INDICATES FEW OR NO CLOUDS BELOW 12,000 FEET WITH NO
SIGNIFICANT WEATHER AND/OR OBSTRUCTIONS TO VISIBILITY.


NDZ001>003-009>011-017-301400-
NORTHWEST NORTH DAKOTA

CITY           SKY/WX    TMP DP  RH WIND       PRES   REMARKS
WILLISTON      FOG       65  62  90 N9        29.98R VSB 1
MINOT          CLOUDY    64  61  90 E7        29.94R FOG
MINOT AFB      LGT RAIN  63  63 100 SE13      29.93S
$$

NDZ018>021-031>035-040>046-301400-
SOUTHWEST NORTH DAKOTA

CITY           SKY/WX    TMP DP  RH WIND       PRES   REMARKS
BISMARCK       CLOUDY    67  62  84 S5        29.94F
DICKINSON      CLOUDY    68  61  78 SE7       29.94S
GARRISON         N/A     68  63  84 NE6       29.96R
HETTINGER ARPT CLOUDY    65  60  84 SE9       29.97R
$$

NDZ004>008-012>016-024-026-027-054-301400-
NORTHEAST NORTH DAKOTA

CITY           SKY/WX    TMP DP  RH WIND       PRES   REMARKS
GRAND FORKS    PTSUNNY   58  57  97 W3        29.96R FOG
GRND FRKS AFB  CLOUDY    60  58  95 W5        29.98R
DEVILS LAKE    PTSUNNY   63  55  77 E6        29.97F
$$

NDZ022-023-025-028>030-036>039-047>053-301400-
SOUTHEAST NORTH DAKOTA

CITY           SKY/WX    TMP DP  RH WIND       PRES   REMARKS
FARGO          SUNNY     62  59  90 CALM      29.96S FOG
JAMESTOWN      CLOUDY    64  60  87 E6        29.95F FOG
$$




USA.gov is the U.S. government's official web portal to all federal, state and local government web resources and services.